Location: Pedimozza
(42.0500°N, 9.3500°E)
Time: 04:27:29
(UTC+00:00)

Cosmos 1908 Rocket - Pass Details

Date: 19 August 2019
Orbit: 605 x 633 km, 82.5° (Epoch: 15 September)

Event Time Altitude Azimuth Distance (km) Brightness Sun altitude
Exits shadow 20:15:34 45° 101° (E) 871 3.9 -19.9°
Maximum altitude 20:15:46 45° 93° (E) 867 3.9 -20.0°
Drops below altitude 10° 20:20:02 10° 21° (NNE) 2,022 6.4 -20.6°
Sets 20:22:21 0° 15° (NNE) 2,933 7.4 -20.9°
